Location: ????????
(60.4333°N, 46.4710°E)
Time: 19:37:42
(UTC+00:00)

Cosmos 371 Rocket - Pass Details

Date: 25 November 2020
Orbit: 684 x 698 km, 74.0° (Epoch: 16 January)

Event Time Altitude Azimuth Distance (km) Brightness Sun altitude
Rises 15:59:17 0° 326° (NW) 3,098 7.2 -27.7°
Reaches altitude 10° 16:01:37 10° 328° (NNW) 2,176 6.3 -28.0°
Enters shadow 16:05:06 46° 336° (NNW) 942 4.1 -28.4°
